Grand Island, NE

1:50 AM CDT on May 29, 2017 (GMT -0500)
Central Nebraska Regional

Weather History for KGRI - May, 2013

Change the Weather History Date:

Saturday, May 4, 2013

  Actual Average Record
Temperature  
Mean Temperature 42 °F 57 °F  
Max Temperature 47 °F 69 °F 92 °F (1962)
Min Temperature 37 °F 45 °F 25 °F (1967)
Degree Days  
Heating Degree Days 23 9  
Month to date heating degree days 90 37  
Since 1 July heating degree days 6016 6039  
Cooling Degree Days 0 1  
Month to date cooling degree days 0 4  
Year to date cooling degree days 6 15  
Moisture  
Dew Point 32 °F    
Average Humidity 71    
Maximum Humidity 89    
Minimum Humidity 53    
Precipitation  
Precipitation T in 0.12 in 2.59 in (2001)
Month to date precipitation 0.93 0.48  
Year to date precipitation 7.53 6.02  
Snow  
Snow 0.00 in 0.00 in T in (2003)
Month to date snowfall 0.7 0.0  
Since 1 July snowfall 35.2 29.0  
Snow Depth 0.00 in    
Sea Level Pressure  
Sea Level Pressure 30.13 in    
Wind  
Wind Speed 18 mph (North)    
Max Wind Speed 31 mph    
Max Gust Speed 37 mph    
Visibility 10 miles    
Events      
T = Trace of Precipitation, MM = Missing Value Source: NWS Daily Summary

Daily Weather History Graph

Daily Weather History Graph

Search for Another Location

Airport or City:

Trip Planner

Search our weather history database for the weather conditions in past years. The results will help you decide how hot, cold, wet, or windy it might be!

Date:

Astronomy

May. 04, 2013 Rise Set
Actual Time 6:27 AM CDT 8:33 PM CDT
Civil Twilight 5:57 AM CDT 9:03 PM CDT
Nautical Twilight 5:20 AM CDT 9:40 PM CDT
Astronomical Twilight 4:39 AM CDT 10:21 PM CDT
Moon 3:28 AM CDT (5/4) 3:30 PM CDT (5/4)
Length of Visible Light 15h 06m
Length of Day
14h 06m
Waning Crescent, 27% of the Moon is Illuminated
May 4
Waning Crescent
May 9
New
May 17
First Quarter
May 24
Full
May 31
Last Quarter

Hourly Weather History & Observations

Time (CDT) Temp. Windchill Dew Point Humidity Pressure Visibility Wind Dir Wind Speed Gust Speed Precip Events Conditions
12:53 AM 41.0 °F 33.5 °F 26.1 °F 55% 30.11 in 10.0 mi North 13.8 mph - N/A   Partly Cloudy
1:53 AM 39.9 °F 32.9 °F 27.0 °F 60% 30.10 in 10.0 mi North 11.5 mph - N/A   Overcast
2:53 AM 39.0 °F 31.0 °F 26.1 °F 60% 30.09 in 10.0 mi NNW 13.8 mph - N/A   Overcast
3:53 AM 37.9 °F 30.0 °F 26.1 °F 62% 30.07 in 10.0 mi NNW 12.7 mph - N/A   Overcast
4:53 AM 37.9 °F 30.0 °F 27.0 °F 65% 30.09 in 10.0 mi NNW 12.7 mph - N/A   Overcast
5:53 AM 37.9 °F 29.6 °F 27.0 °F 65% 30.08 in 10.0 mi NNW 13.8 mph - N/A   Overcast
6:53 AM 39.0 °F 30.3 °F 28.0 °F 65% 30.09 in 10.0 mi North 16.1 mph - N/A   Overcast
7:53 AM 39.9 °F 29.2 °F 27.0 °F 60% 30.10 in 10.0 mi North 25.3 mph 29.9 mph N/A   Overcast
8:53 AM 39.9 °F 29.7 °F 27.0 °F 60% 30.11 in 10.0 mi North 23.0 mph 28.8 mph N/A   Overcast
9:11 AM 41.0 °F 30.7 °F 26.6 °F 57% 30.08 in 10.0 mi North 25.3 mph 32.2 mph N/A   Overcast
9:53 AM 42.1 °F 32.8 °F 28.0 °F 58% 30.11 in 10.0 mi North 21.9 mph 29.9 mph N/A   Overcast
10:53 AM 44.1 °F 34.8 °F 28.0 °F 53% 30.12 in 10.0 mi North 25.3 mph 34.5 mph N/A   Overcast
11:53 AM 46.0 °F 37.0 °F 30.9 °F 56% 30.12 in 10.0 mi North 27.6 mph 32.2 mph N/A   Overcast
12:53 PM 46.9 °F - 32.0 °F 56% 30.13 in 10.0 mi North 23.0 mph 32.2 mph N/A   Overcast
1:30 PM 46.4 °F 38.1 °F 33.8 °F 62% 30.11 in 10.0 mi NNE 24.2 mph - N/A   Overcast
1:53 PM 45.0 °F 36.9 °F 33.1 °F 63% 30.13 in 10.0 mi North 20.7 mph 28.8 mph N/A   Overcast
2:53 PM 46.0 °F 37.8 °F 33.1 °F 61% 30.14 in 10.0 mi North 23.0 mph 28.8 mph N/A   Overcast
3:37 PM 46.4 °F 38.3 °F 33.8 °F 62% 30.11 in 10.0 mi North 23.0 mph 29.9 mph N/A   Overcast
3:53 PM 46.0 °F 38.0 °F 35.1 °F 66% 30.14 in 10.0 mi North 21.9 mph 28.8 mph N/A   Overcast
4:53 PM 46.0 °F 38.5 °F 34.0 °F 63% 30.15 in 10.0 mi North 19.6 mph 27.6 mph N/A   Overcast
5:53 PM 46.0 °F 38.3 °F 34.0 °F 63% 30.15 in 10.0 mi North 20.7 mph 29.9 mph N/A   Overcast
6:53 PM 44.1 °F 35.9 °F 36.0 °F 73% 30.17 in 10.0 mi NNE 19.6 mph - N/A   Overcast
7:38 PM 42.8 °F 35.1 °F 37.4 °F 81% 30.15 in 10.0 mi North 16.1 mph - N/A   Overcast
7:53 PM 43.0 °F 35.7 °F 37.0 °F 80% 30.18 in 10.0 mi NNE 15.0 mph - N/A   Overcast
8:53 PM 42.1 °F 34.9 °F 37.9 °F 85% 30.19 in 10.0 mi North 13.8 mph - 0.00 in   Overcast
9:53 PM 42.1 °F 36.1 °F 39.0 °F 89% 30.21 in 10.0 mi North 10.4 mph - N/A   Overcast
10:53 PM 42.1 °F 36.6 °F 39.0 °F 89% 30.21 in 10.0 mi North 9.2 mph - N/A   Overcast
11:36 PM 42.8 °F 37.0 °F 37.4 °F 81% 30.19 in 10.0 mi North 10.4 mph - N/A   Overcast
11:53 PM 42.1 °F 35.2 °F 37.9 °F 85% 30.21 in 10.0 mi North 12.7 mph - N/A   Overcast